DW7889 Weather Reports


time (UTC)temp
C
wind
direction
speed
KPH
gust
KPH
rain 1hr
cm
rain 24hr
cm
rain mn
cm
humidity
%
barometer
mb
20260508075043 13 326 11.3 24.1 0.61 3.91 0.99 92 1007.5
20260508074547 13 333 11.3 27.4 0.61 3.91 0.99 92 1007.7
20260508074028 12 360 14.5 27.4 0.61 3.91 0.99 93 1007.7
20260508073534 12 297 12.9 20.9 0.61 3.91 0.99 93 1007.7
20260508073042 12 321 16.1 20.9 0.71 3.91 0.99 92 1007.4
20260508072542 12 297 8.0 22.5 0.71 3.91 0.99 91 1007.1
20260508072043 13 257 11.3 24.1 0.61 3.71 0.94 89 1007.1
20260508071527 14 319 12.9 38.6 0.51 3.51 0.89 87 1007.3
20260508071031 16 295 12.9 37.0 0.51 3.51 0.89 89 1007.4
20260508070536 17 339 8.0 22.5 0.61 3.51 0.89 91 1006.7
20260508070043 17 6 9.7 25.7 0.51 3.40 0.86 91 1006.8
20260508065529 17 359 11.3 25.7 0.41 3.30 0.84 91 1006.9
20260508065033 17 359 3.2 20.9 0.41 3.30 0.84 91 1006.8
20260508064534 17 337 8.0 20.9 0.41 3.30 0.84 90 1006.8
20260508064039 17 289 8.0 17.7 0.41 3.30 0.84 90 1006.8
20260508063602 17 335 6.4 20.9 0.51 3.30 0.84 90 1006.4
20260508063027 17 318 11.3 24.1 0.41 3.20 0.81 89 1006.9
20260508062550 17 9 8.0 32.2 0.51 3.20 0.81 89 1006.1
20260508062034 17 20 9.7 32.2 0.41 3.10 0.79 90 1006.9
20260508061538 17 356 14.5 29.0 0.41 3.00 0.76 90 1007.1
20260508061043 17 348 11.3 29.0 0.51 3.00 0.76 90 1007.0
20260508060527 17 359 16.1 43.5 0.61 2.90 0.74 90 1006.7
20260508060034 17 9 20.9 43.5 1.40 2.90 0.74 91 1006.8
20260508055541 17 5 12.9 30.6 2.01 2.90 0.74 92 1007.1
20260508055046 17 356 14.5 24.1 2.01 2.90 0.74 92 1007.0
20260508054531 17 295 11.3 30.6 2.01 2.90 0.74 93 1006.8
20260508054036 16 340 17.7 30.6 2.01 2.90 0.74 93 1006.9
20260508053540 16 342 14.5 30.6 1.91 2.79 0.71 92 1006.8
20260508053024 16 359 11.3 30.6 1.91 2.79 0.71 92 1006.6
20260508052532 16 9 16.1 30.6 1.80 2.69 0.69 92 1006.9
20260508052056 16 10 14.5 29.0 1.80 2.69 0.69 92 1006.9
20260508051539 16 1 16.1 29.0 1.70 2.59 0.66 92 1006.9
20260508051045 16 21 14.5 24.1 1.60 2.49 0.64 91 1006.9
20260508050528 17 333 12.9 19.3 1.40 2.31 0.58 91 1007.3
20260508050035 17 351 8.0 17.7 0.61 1.50 0.38 90 1008.0
20260508045602 17 11 8.0 19.3 0.00 0.89 0.23 90 1007.4
20260508045043 17 328 11.3 19.3 0.00 0.89 0.23 90 1006.8
20260508044608 17 1 8.0 14.5 0.10 0.89 0.23 90 1006.4
20260508044029 17 39 8.0 20.9 0.10 0.89 0.23 89 1006.6
20260508043533 17 1 9.7 20.9 0.30 0.89 0.23 89 1006.7
20260508043038 17 360 9.7 20.9 0.79 0.89 0.23 89 1006.7
20260508042544 17 359 8.0 16.1 0.89 0.89 0.23 89 1006.6
20260508042028 17 359 8.0 14.5 0.89 0.89 0.23 89 1006.6
20260508041551 17 359 9.7 22.5 0.89 0.89 0.23 89 1006.6
20260508041052 17 360 9.7 22.5 0.89 0.89 0.23 89 1006.5
20260508040536 17 6 8.0 17.7 0.89 0.89 0.23 89 1006.6
20260508040043 17 359 9.7 25.7 0.89 0.89 0.23 89 1006.5
20260508035528 17 357 9.7 25.7 0.89 0.89 0.23 89 1006.6
20260508035031 17 46 16.1 27.4 0.89 0.89 0.23 89 1006.9
20260508034533 17 309 11.3 27.4 0.79 0.79 0.20 89 1007.0
20260508034038 17 337 11.3 24.1 0.79 0.79 0.20 89 1007.5
20260508033543 17 330 14.5 32.2 0.51 0.51 0.13 87 1007.3
20260508033046 17 329 16.1 32.2 0.10 0.10 0.03 86 1007.7
20260508032528 18 318 17.7 48.3 0.00 0.00 0.00 83 1007.8
20260508032032 18 295 22.5 49.9 0.00 0.00 0.00 80 1007.4
20260508031555 19 309 30.6 49.9 0.00 0.00 0.00 77 1007.5
20260508031038 20 322 30.6 51.5 0.00 0.00 0.00 72 1007.0
20260508030527 21 295 20.9 51.5 0.00 0.00 0.00 69 1007.1
20260508030036 22 294 17.7 33.8 0.00 0.00 0.00 65 1007.5
20260508025542 23 274 14.5 24.1 0.00 0.00 0.00 65 1006.9
20260508025027 23 359 14.5 25.7 0.00 0.00 0.00 65 1006.5
20260508024530 23 340 16.1 25.7 0.00 0.00 0.00 65 1006.6
20260508024053 23 1 12.9 24.1 0.00 0.00 0.00 65 1006.7
20260508023539 23 3 12.9 24.1 0.00 0.00 0.00 64 1006.7
20260508023043 23 343 14.5 24.1 0.00 0.00 0.00 64 1006.9
20260508022527 23 1 11.3 24.1 0.00 0.00 0.00 64 1006.9
20260508022034 23 1 11.3 24.1 0.00 0.00 0.00 65 1007.1
20260508021539 23 18 11.3 35.4 0.00 0.00 0.00 65 1006.6
20260508021103 23 1 14.5 35.4 0.00 0.00 0.00 64 1006.1
20260508020526 23 18 17.7 41.8 0.00 0.00 0.00 65 1006.2
20260508020031 23 340 12.9 29.0 0.00 0.00 0.00 64 1006.3
20260508015539 23 355 12.9 27.4 0.00 0.00 0.00 64 1006.5
20260508015042 23 20 14.5 32.2 0.00 0.00 0.00 64 1006.5
20260508014543 23 1 17.7 33.8 0.00 0.00 0.00 64 1006.7
20260508014048 23 359 14.5 32.2 0.00 0.00 0.00 64 1006.7
20260508013531 23 345 12.9 35.4 0.00 0.00 0.00 64 1006.8
20260508013035 23 1 12.9 35.4 0.00 0.00 0.00 64 1006.8
20260508012541 23 1 11.3 29.0 0.00 0.00 0.00 64 1006.8
20260508012044 23 353 14.5 27.4 0.00 0.00 0.00 64 1006.9
20260508011529 23 359 12.9 25.7 0.00 0.00 0.00 63 1007.0
20260508011031 23 1 12.9 24.1 0.00 0.00 0.00 63 1007.0
20260508010535 23 17 16.1 24.1 0.00 0.00 0.00 63 1006.9
20260508010041 23 5 14.5 27.4 0.00 0.00 0.00 63 1006.9
20260508005527 23 1 14.5 32.2 0.00 0.00 0.00 63 1006.9
20260508005052 23 1 16.1 32.2 0.00 0.00 0.00 63 1006.9
20260508004532 23 347 12.9 27.4 0.00 0.00 0.00 63 1006.9
20260508004035 23 1 12.9 24.1 0.00 0.00 0.00 63 1006.8
20260508003539 23 330 14.5 29.0 0.00 0.00 0.00 63 1006.7
20260508003043 23 20 16.1 29.0 0.00 0.00 0.00 63 1006.9
20260508002547 23 6 12.9 29.0 0.00 0.00 0.00 63 1006.9
20260508002049 23 33 14.5 29.0 0.00 0.00 0.00 63 1006.9
20260508001552 23 2 12.9 22.5 0.00 0.00 0.00 63 1006.9
20260508001034 23 23 11.3 25.7 0.00 0.00 0.00 63 1006.9
20260508000557 23 346 11.3 25.7 0.00 0.00 0.00 63 1006.8
20260508000042 23 1 11.3 19.3 0.00 0.00 0.00 63 1006.8
20260507235604 23 11 9.7 19.3 0.00 0.00 0.00 63 1006.7
20260507235028 23 360 8.0 14.5 0.00 0.00 0.00 63 1006.8
20260507234532 23 4 8.0 14.5 0.00 0.00 0.00 63 1006.7
20260507234055 23 356 8.0 17.7 0.00 0.00 0.00 63 1006.7
20260507233538 23 359 8.0 16.1 0.00 0.00 0.00 63 1006.8
20260507233040 23 13 9.7 19.3 0.00 0.00 0.00 63 1006.8
20260507232528 23 1 6.4 19.3 0.00 0.00 0.00 62 1006.7
20260507232032 23 11 8.0 16.1 0.00 0.00 0.00 62 1006.7
20260507231538 23 342 8.0 17.7 0.00 0.00 0.00 62 1006.6
20260507231043 23 40 8.0 17.7 0.00 0.00 0.00 62 1006.6
20260507230527 23 349 6.4 19.3 0.00 0.00 0.00 62 1006.6
20260507230034 23 40 8.0 19.3 0.00 0.00 0.00 62 1006.7
20260507225535 23 359 9.7 14.5 0.00 0.00 0.00 62 1006.6
20260507225038 23 1 8.0 14.5 0.00 0.00 0.00 62 1006.7
20260507224541 23 4 8.0 14.5 0.00 0.00 0.00 62 1006.8
20260507224045 23 31 11.3 17.7 0.00 0.00 0.00 62 1006.9
20260507223606 23 360 8.0 19.3 0.00 0.00 0.00 61 1006.9
20260507223029 23 1 11.3 19.3 0.00 0.00 0.00 61 1006.8
20260507222539 23 349 11.3 17.7 0.00 0.00 0.00 61 1006.7
20260507222041 24 306 9.7 14.5 0.00 0.00 0.00 61 1006.7
20260507221544 24 13 9.7 14.5 0.00 0.00 0.00 60 1006.8
20260507221030 24 345 9.7 19.3 0.00 0.00 0.00 60 1006.9
20260507220531 24 11 12.9 19.3 0.00 0.00 0.00 60 1006.8
20260507220054 24 5 11.3 19.3 0.00 0.00 0.00 60 1006.8
20260507215533 24 360 8.0 14.5 0.00 0.00 0.00 60 1007.2
20260507215039 24 8 9.7 17.7 0.00 0.00 0.00 60 1007.1
20260507214542 24 6 9.7 17.7 0.00 0.00 0.00 60 1007.0
20260507214045 24 42 8.0 14.5 0.00 0.00 0.00 60 1007.1
20260507213546 25 359 6.4 14.5 0.00 0.00 0.00 60 1007.3
20260507213027 25 351 6.4 14.5 0.00 0.00 0.00 60 1007.2
20260507212530 25 1 6.4 19.3 0.00 0.00 0.00 60 1007.2
20260507212038 25 20 11.3 19.3 0.00 0.00 0.00 59 1007.3
20260507211602 25 304 6.4 19.3 0.00 0.00 0.00 59 1007.2
20260507211043 25 13 11.3 19.3 0.00 0.00 0.00 59 1007.3
20260507210526 25 359 12.9 19.3 0.00 0.00 0.00 58 1007.4
20260507210051 25 16 9.7 17.7 0.00 0.00 0.00 59 1007.3
20260507205552 25 1 9.7 27.4 0.00 0.00 0.00 58 1007.3
20260507205035 25 360 14.5 27.4 0.00 0.00 0.00 58 1007.2
20260507204559 25 24 8.0 19.3 0.00 0.00 0.00 59 1007.1
20260507203537 25 335 8.0 22.5 0.00 0.00 0.00 58 1007.3
20260507203039 25 360 11.3 22.5 0.00 0.00 0.00 58 1007.2
20260507202523 26 356 12.9 22.5 0.00 0.00 0.00 57 1007.3
20260507202029 26 57 12.9 33.8 0.00 0.00 0.00 57 1007.3
20260507201532 26 355 12.9 33.8 0.00 0.00 0.00 57 1007.3
20260507201037 26 327 14.5 30.6 0.00 0.00 0.00 57 1007.3
20260507200524 26 20 11.3 30.6 0.00 0.00 0.00 56 1007.3
20260507200028 26 1 12.9 25.7 0.00 0.00 0.00 56 1007.4
20260507195532 26 332 16.1 25.7 0.00 0.00 0.00 56 1007.3
20260507195037 26 3 12.9 30.6 0.00 0.00 0.00 56 1007.2
20260507194558 26 1 20.9 30.6 0.00 0.00 0.00 56 1007.1
20260507194040 26 27 16.1 29.0 0.00 0.00 0.00 56 1007.2
20260507193604 26 356 17.7 35.4 0.00 0.00 0.00 55 1007.3
20260507193044 26 334 19.3 30.6 0.00 0.00 0.00 55 1007.3
20260507192546 26 360 12.9 24.1 0.00 0.00 0.00 56 1007.3
20260507192026 26 2 14.5 25.7 0.00 0.00 0.00 56 1007.3
20260507191530 26 328 11.3 25.7 0.00 0.00 0.00 56 1007.3
20260507191034 26 359 16.1 30.6 0.00 0.00 0.00 56 1007.3
20260507190535 26 18 14.5 30.6 0.00 0.00 0.00 56 1007.4
20260507190035 26 1 14.5 24.1 0.00 0.00 0.00 56 1007.2
20260507185538 26 1 11.3 25.7 0.00 0.00 0.00 57 1007.3
20260507185042 26 1 14.5 25.7 0.00 0.00 0.00 56 1007.4
20260507184601 26 3 12.9 22.5 0.00 0.00 0.00 56 1007.5
20260507184027 26 338 12.9 30.6 0.00 0.00 0.00 56 1007.4
20260507183530 26 1 17.7 30.6 0.00 0.00 0.00 56 1007.5
20260507183033 26 6 17.7 30.6 0.00 0.00 0.00 55 1007.4
20260507182539 26 359 14.5 32.2 0.00 0.00 0.00 55 1007.2
20260507182043 26 1 14.5 32.2 0.00 0.00 0.00 54 1007.1
20260507181546 26 345 14.5 38.6 0.00 0.00 0.00 54 1007.1
20260507181109 26 16 19.3 41.8 0.00 0.00 0.00 54 1007.1
20260507180528 26 354 24.1 41.8 0.00 0.00 0.00 53 1007.1
20260507180033 26 323 22.5 49.9 0.00 0.00 0.00 52 1007.2
20260507175554 27 25 19.3 46.7 0.00 0.00 0.00 52 1007.5
20260507175036 27 308 25.7 41.8 0.00 0.00 0.00 51 1007.4
20260507174538 27 336 25.7 41.8 0.00 0.00 0.00 51 1007.4
20260507174040 27 326 27.4 41.8 0.00 0.00 0.00 50 1007.5
20260507173527 27 8 17.7 41.8 0.00 0.00 0.00 50 1007.6
20260507173031 27 359 22.5 43.5 0.00 0.00 0.00 50 1007.6
20260507172534 27 338 22.5 45.1 0.00 0.00 0.00 50 1007.6
20260507172035 27 360 27.4 45.1 0.00 0.00 0.00 50 1007.6
20260507171559 27 349 17.7 41.8 0.00 0.00 0.00 51 1007.7
20260507171040 27 352 20.9 38.6 0.00 0.00 0.00 50 1007.7
20260507170537 27 300 20.9 38.6 0.00 0.00 0.00 50 1007.6
20260507170044 27 57 19.3 38.6 0.00 0.00 0.00 50 1007.7
20260507165541 27 349 17.7 41.8 0.00 0.00 0.00 51 1007.6
20260507165100 27 10 22.5 43.5 0.00 0.00 0.00 50 1007.7
20260507164542 27 1 24.1 40.2 0.00 0.00 0.00 49 1007.6
20260507164043 27 32 22.5 43.5 0.00 0.00 0.00 50 1007.7
20260507163545 27 31 25.7 51.5 0.00 0.00 0.00 49 1007.9
20260507163029 27 7 29.0 51.5 0.00 0.00 0.00 49 1008.0
20260507162533 27 6 19.3 45.1 0.00 0.00 0.00 49 1008.0
20260507162056 27 1 17.7 38.6 0.00 0.00 0.00 50 1008.1
20260507161540 27 1 19.3 54.7 0.00 0.00 0.00 50 1007.9
20260507161046 27 359 20.9 54.7 0.00 0.00 0.00 51 1008.0
20260507160548 27 7 27.4 46.7 0.00 0.00 0.00 51 1008.2
20260507160049 27 15 20.9 51.5 0.00 0.00 0.00 52 1008.1
20260507155529 27 313 29.0 51.5 0.00 0.00 0.00 53 1008.2
20260507155031 27 360 24.1 48.3 0.00 0.00 0.00 54 1008.1
20260507154535 27 14 19.3 38.6 0.00 0.00 0.00 57 1008.2
20260507154036 26 354 22.5 45.1 0.00 0.00 0.00 56 1008.4
20260507153538 26 30 25.7 46.7 0.00 0.00 0.00 57 1008.7
20260507153039 26 23 20.9 43.5 0.00 0.00 0.00 59 1008.9
20260507152538 26 320 17.7 37.0 0.00 0.00 0.00 60 1008.9
20260507152040 26 309 24.1 43.5 0.00 0.00 0.00 61 1009.0
20260507151541 26 11 22.5 46.7 0.00 0.00 0.00 62 1009.2
20260507151040 26 360 24.1 46.7 0.00 0.00 0.00 62 1009.3
20260507150604 26 7 20.9 40.2 0.00 0.00 0.00 62 1009.5
20260507150048 25 330 24.1 40.2 0.00 0.00 0.00 63 1009.7
20260507145531 25 311 20.9 38.6 0.00 0.00 0.00 64 1009.9
20260507145037 25 16 17.7 40.2 0.00 0.00 0.00 66 1009.9
20260507144539 25 357 27.4 40.2 0.00 0.00 0.00 65 1010.0
20260507144039 25 3 20.9 51.5 0.00 0.00 0.00 66 1010.2
20260507143602 25 326 14.5 38.6 0.00 0.00 0.00 67 1010.4
20260507143043 25 34 19.3 38.6 0.00 0.00 0.00 67 1010.6
20260507142546 24 328 22.5 41.8 0.00 0.00 0.00 69 1010.6
20260507142049 24 352 20.9 41.8 0.00 0.00 0.00 69 1010.7
20260507141038 23 8 20.9 41.8 0.00 0.00 0.00 69 1011.1
20260507140539 23 321 19.3 40.2 0.00 0.00 0.00 71 1011.3
20260507140039 23 359 22.5 35.4 0.00 0.00 0.00 71 1011.3
20260507135542 23 6 19.3 48.3 0.00 0.00 0.00 73 1011.4
20260507135044 22 8 24.1 48.3 0.00 0.00 0.00 73 1011.4
20260507134544 22 344 19.3 41.8 0.00 0.00 0.00 74 1011.5
20260507134106 22 348 19.3 32.2 0.00 0.00 0.00 74 1011.6
20260507133604 22 17 20.9 40.2 0.00 0.00 0.00 74 1011.7
20260507133104 22 30 19.3 37.0 0.00 0.00 0.00 73 1011.8
20260507132604 22 13 22.5 37.0 0.00 0.00 0.00 73 1011.9
20260507132044 22 11 27.4 38.6 0.00 0.00 0.00 73 1012.0
20260507131530 22 11 20.9 38.6 0.00 0.00 0.00 73 1012.1
20260507131031 22 9 19.3 33.8 0.00 0.00 0.00 74 1012.4
20260507130533 22 331 19.3 0.0 0.00 0.00 0.00 74 1012.2
20260507130034 22 25 16.1 32.2 0.00 0.00 0.00 75 1012.4
20260507125534 22 359 20.9 32.2 0.00 0.00 0.00 75 1012.5
20260507125035 22 354 19.3 40.2 0.00 0.00 0.00 75 1012.5
20260507124538 22 14 20.9 40.2 0.00 0.00 0.00 75 1012.6
20260507124037 22 11 20.9 32.2 0.00 0.00 0.00 74 1012.7
20260507123540 22 22 17.7 35.4 0.00 0.00 0.00 74 1012.8
20260507123040 22 347 20.9 35.4 0.00 0.00 0.00 74 1012.9
20260507122541 22 354 14.5 32.2 0.00 0.00 0.00 74 1012.8
20260507122039 22 360 19.3 33.8 0.00 0.00 0.00 74 1012.8
20260507121543 22 348 16.1 33.8 0.00 0.00 0.00 75 1012.8
20260507121026 22 360 14.5 32.2 0.00 0.00 0.00 75 1012.8
20260507120530 22 15 20.9 33.8 0.00 0.00 0.00 76 1012.8
20260507120056 22 359 16.1 40.2 0.00 0.00 0.00 76 1012.6
20260507115525 22 1 24.1 40.2 0.00 0.00 0.00 76 1012.6
20260507115030 22 355 20.9 35.4 0.00 0.00 0.00 76 1012.5
20260507114531 22 326 20.9 37.0 0.00 0.00 0.00 76 1012.5
20260507114035 21 8 22.5 37.0 0.00 0.00 0.00 76 1012.6
20260507113539 21 348 19.3 37.0 0.00 0.00 0.00 77 1012.5
20260507113040 21 1 16.1 29.0 0.00 0.00 0.00 77 1012.6
20260507112526 21 1 17.7 38.6 0.00 0.00 0.00 77 1012.5
20260507112051 21 15 17.7 38.6 0.00 0.00 0.00 77 1012.5
20260507111554 21 16 19.3 35.4 0.00 0.00 0.00 77 1012.4
20260507111054 21 11 17.7 35.4 0.00 0.00 0.00 77 1012.3
20260507110537 21 12 16.1 32.2 0.00 0.00 0.00 77 1012.3
20260507110038 21 9 20.9 32.2 0.00 0.00 0.00 77 1012.3
20260507105609 21 8 19.3 32.2 0.00 0.00 0.00 77 1012.1
20260507105043 21 297 17.7 32.2 0.00 0.00 0.00 77 1012.0
20260507104605 21 349 19.3 32.2 0.00 0.00 0.00 77 1012.0
20260507104045 21 5 20.9 32.2 0.00 0.00 0.00 77 1012.0
20260507103535 21 360 16.1 33.8 0.00 0.00 0.00 78 1012.1
20260507103040 21 1 22.5 37.0 0.00 0.00 0.00 78 1012.0
20260507102542 21 22 19.3 37.0 0.00 0.00 0.00 79 1012.1
20260507102104 21 355 19.3 33.8 0.00 0.00 0.00 79 1012.0
20260507101526 21 1 17.7 35.4 0.00 0.00 0.00 80 1012.0
20260507101030 21 25 19.3 35.4 0.00 0.00 0.00 80 1011.9
20260507100551 21 352 17.7 33.8 0.00 0.00 0.00 80 1012.0
20260507100031 21 28 19.3 37.0 0.00 0.00 0.00 80 1012.1
20260507095533 21 347 19.3 37.0 0.00 0.00 0.00 80 1012.0
20260507095032 21 353 19.3 33.8 0.00 0.00 0.00 80 1012.2
20260507094534 21 1 17.7 32.2 0.00 0.00 0.00 80 1012.1
20260507094040 21 359 17.7 30.6 0.00 0.00 0.00 80 1012.0
20260507093540 21 21 20.9 33.8 0.00 0.00 0.00 80 1012.0
20260507093043 21 1 22.5 37.0 0.00 0.00 0.00 80 1012.0
20260507092533 21 360 19.3 32.2 0.00 0.00 0.00 80 1012.0
20260507092039 21 1 22.5 37.0 0.00 0.00 0.00 80 1012.0
20260507091542 21 1 16.1 37.0 0.00 0.00 0.00 80 1012.1
20260507091047 21 357 19.3 33.8 0.00 0.00 0.00 80 1012.2
20260507090528 21 27 17.7 33.8 0.00 0.00 0.00 80 1012.2
20260507090035 21 17 20.9 32.2 0.00 0.00 0.00 81 1012.3
20260507085537 21 8 16.1 30.6 0.00 0.00 0.00 81 1012.3
20260507085040 21 1 19.3 30.6 0.00 0.00 0.00 81 1012.3
20260507084542 21 1 14.5 30.6 0.00 0.00 0.00 82 1012.3
20260507084041 21 6 17.7 32.2 0.00 0.00 0.00 82 1012.3
20260507083604 21 359 16.1 32.2 0.00 0.00 0.00 82 1012.4
20260507083026 21 360 16.1 38.6 0.00 0.00 0.00 82 1012.5
20260507082530 21 330 19.3 33.8 0.00 0.00 0.00 82 1012.5
20260507082054 21 1 19.3 30.6 0.00 0.00 0.00 82 1012.5
20260507081539 21 358 16.1 29.0 0.00 0.00 0.00 83 1012.5
20260507081044 21 359 16.1 30.6 0.00 0.00 0.00 83 1012.7
20260507080528 21 20 17.7 30.6 0.00 0.00 0.00 83 1012.7
20260507080034 21 360 16.1 30.6 0.00 0.00 0.00 83 1012.7
20260507075536 21 12 17.7 30.6 0.00 0.00 0.00 83 1012.8